Other Public Products
Issued by NWS Charleston, SC

Current Version | Previous Version | Graphics & Text | Print | Product List | Glossary On
Versions: 1 2 3 4 5 6 7 8 9 10 11 12 13 14 15 16 17 18 19 20 21 22 23 24 25 26 27 28 29 30 31 32 33 34 35 36 37 38 39 40 41 42 43 44 45 46 47 48 49 50
456
FPUS82 KCHS 220512
OPUCHS

TEST...KCHS/KSAV Gateway Observations...TEST
National Weather Service Charleston SC
1200 AM EST THU FEB 22 2018

NOTE: "fair" indicates few or no clouds below 12,000 feet with no
significant weather and/or obstructions to visibility.

SCZ050-WAZ558-NCZ071-TXZ119-213-PAZ071-DCZ001-FLZ074-172-MI076-
NYZ176-178-MAZ016-IL014-TNZ027-NJZ106-GAZ044-MD014-220600-

...Gateway Observations for Charleston International...

CITY           SKY/WX    TMP DP  RH WIND       PRES   REMARKS
Chas Airport   FAIR      67  65  93 S9        30.43F
Seattle        LGT SNOW  31  29  92 SE8       30.16F FOG     WCI  23
Charlotte      FAIR      66  65  96 S9        30.42S
Dallas DFW     CLOUDY    36  34  92 N15       30.29F WCI  27
Dallas Love    CLOUDY    35  34  96 N10       30.31F FOG     WCI  27
Philladelphia  CLOUDY    58  49  72 N13       30.41R
Wash National  MOCLDY    68  61  78 N3        30.37S
Baltimore      CLOUDY    67  59  75 VRB5      30.37R
Miami          FAIR      75  68  78 E12       30.33F
Detroit        CLOUDY    32  27  81 NE8       30.63F WCI  25
Newark         CLOUDY    59  43  55 N13       30.40R
Laguardia      CLOUDY    58  46  64 N9G21     30.39R
J F K          CLOUDY    59  50  72 N12       30.40R
Boston Logan   CLOUDY    55  35  47 N15       30.39R
Ft. Lauderdale FAIR      76  69  79 E17       30.32F
Chicago O`Hare CLOUDY    29  20  69 NE13      30.61F WCI  19
Chicago Midway CLOUDY    31  23  72 NE12      30.61F WCI  22
Houston Bush   LGT RAIN  53  52  96 NW12      30.19S FOG
Houston Hobby  LGT RAIN  57  57 100 NW8       30.18R
Nashville      HVY RAIN  50  48  93 N5        30.29F FOG
Atlanta        FAIR      68  63  84 S5        30.37S

$$

GAZ044-118-TXZ119-213-NCZ071-DCZ001-MDZ014-506-PAZ021-071-NJZ106-
NYZ176-178-MAZ106-OHZ011-021-055-MIZ076-KYZ091-ILZ014-INZ047-
MNZ060-ONZ431-220600-

...Gateway Observations for Savannah International...

CITY           SKY/WX    TMP DP  RH WIND       PRES   REMARKS
Savannah Arpt  FAIR      68  66  93 SE6       30.43S
Atlanta        FAIR      68  63  84 S5        30.37S
Charlotte      FAIR      66  65  96 S9        30.42S
Dallas DFW     CLOUDY    36  34  92 N15       30.29F WCI  27
Houston Bush   LGT RAIN  53  52  96 NW12      30.19S FOG
Wash National  MOCLDY    68  61  78 N3        30.37S
Wash Dulles    CLOUDY    65  57  75 N7        30.39R
Baltimore      CLOUDY    67  59  75 VRB5      30.37R
Philadelphia   CLOUDY    58  49  72 N13       30.41R
Newark         CLOUDY    59  43  55 N13       30.40R
Laguardia      CLOUDY    58  46  64 N9G21     30.39R
J F K          CLOUDY    59  50  72 N12       30.40R
Boston         CLOUDY    55  35  47 N15       30.39R
Pittsburg      CLOUDY    43  37  79 NE7       30.50F
Akron          LGT RAIN  34  30  85 N10       30.53F WCI  26
Cleveland      LGTSLEET  33  29  85 NE12      30.63R WCI  24
Cincinnati     LGT RAIN  43  43 100 NE13      30.43S
Columbus       CLOUDY    38  36  91 NE9       30.50S WCI  32
Detroit        CLOUDY    32  27  81 NE8       30.63F WCI  25
Chicago O`Hare CLOUDY    29  20  69 NE13      30.61F WCI  19
Minneapolis    MOCLDY    13   5  70 CALM      30.64F
Indianapolis   LGT RAIN  38  37  97 NE12      30.48F FOG     WCI  30
Toronto Canada CLOUDY    28  21  74 N14       30.65R WCI  17

$$




USA.gov is the U.S. government's official web portal to all federal, state and local government web resources and services.